Time,TemperatureF,DewpointF,PressureIn,WindDirection,WindDirectionDegrees,WindSpeedMPH,WindSpeedGustMPH,Humidity,HourlyPrecipIn,Conditions,Clouds,dailyrainin,SoftwareType,DateUTC
2013-04-25 00:24:00,54.1,53.5,29.84,SSE,157,0.0,-999.0,98,-99.99,,,0.00,Acu-Link.com,2013-04-25 07:24:00,
2013-04-25 00:39:00,54.3,53.7,29.85,WSW,247,0.0,-999.0,98,-99.99,,,0.00,Acu-Link.com,2013-04-25 07:39:00,
2013-04-25 00:54:00,54.1,53.5,29.83,SSW,202,0.0,-999.0,98,-99.99,,,0.00,Acu-Link.com,2013-04-25 07:54:00,
2013-04-25 01:10:00,54.1,53.5,29.84,SSW,202,0.0,-999.0,98,-99.99,,,0.00,Acu-Link.com,2013-04-25 08:10:00,
2013-04-25 01:25:00,54.3,53.7,29.83,East,90,0.0,-999.0,98,-99.99,,,0.00,Acu-Link.com,2013-04-25 08:25:00,
2013-04-25 01:40:00,54.5,53.9,29.85,SSW,202,0.0,-999.0,98,-99.99,,,0.00,Acu-Link.com,2013-04-25 08:40:00,
2013-04-25 01:55:00,54.5,53.9,29.84,SSW,202,0.0,-999.0,98,-99.99,,,0.00,Acu-Link.com,2013-04-25 08:55:00,
2013-04-25 02:10:00,54.5,53.9,29.83,South,180,0.0,-999.0,98,-99.99,,,0.00,Acu-Link.com,2013-04-25 09:10:00,
2013-04-25 02:25:00,54.5,53.9,29.83,WSW,247,0.0,-999.0,98,-99.99,,,0.00,Acu-Link.com,2013-04-25 09:25:00,
2013-04-25 02:41:00,54.5,53.9,29.84,SW,225,0.0,-999.0,98,-99.99,,,0.00,Acu-Link.com,2013-04-25 09:41:00,
2013-04-25 02:56:00,54.7,54.1,29.83,West,270,0.0,-999.0,98,-99.99,,,0.00,Acu-Link.com,2013-04-25 09:56:00,
2013-04-25 03:11:00,54.9,54.3,29.84,SSW,202,0.0,-999.0,98,-99.99,,,0.00,Acu-Link.com,2013-04-25 10:11:00,
2013-04-25 03:26:00,54.7,54.1,29.83,SSW,202,0.0,-999.0,98,-99.99,,,0.00,Acu-Link.com,2013-04-25 10:26:00,
2013-04-25 03:41:00,54.7,54.1,29.84,SW,225,0.0,-999.0,98,-99.99,,,0.00,Acu-Link.com,2013-04-25 10:41:00,
2013-04-25 03:56:00,54.5,53.9,29.85,SE,135,0.0,-999.0,98,-99.99,,,0.00,Acu-Link.com,2013-04-25 10:56:00,
2013-04-25 04:11:00,54.5,53.9,29.85,SSW,202,0.0,-999.0,98,-99.99,,,0.00,Acu-Link.com,2013-04-25 11:11:00,
2013-04-25 04:26:00,54.5,53.9,29.86,SSW,202,0.0,-999.0,98,-99.99,,,0.00,Acu-Link.com,2013-04-25 11:26:00,
2013-04-25 04:41:00,54.1,53.5,29.86,SSW,202,0.0,-999.0,98,-99.99,,,0.00,Acu-Link.com,2013-04-25 11:41:00,
2013-04-25 04:56:00,53.6,53.0,29.86,SSW,202,0.0,-999.0,98,-99.99,,,0.00,Acu-Link.com,2013-04-25 11:56:00,
2013-04-25 05:12:00,52.9,52.4,29.86,SSW,202,0.0,-999.0,98,-99.99,,,0.00,Acu-Link.com,2013-04-25 12:12:00,
2013-04-25 05:27:00,52.3,51.8,29.86,SSE,157,0.0,-999.0,98,-99.99,,,0.00,Acu-Link.com,2013-04-25 12:27:00,
2013-04-25 05:42:00,51.3,50.8,29.85,South,180,0.0,-999.0,98,-99.99,,,0.00,Acu-Link.com,2013-04-25 12:42:00,
2013-04-25 05:57:00,50.5,50.0,29.86,South,180,0.0,-999.0,98,-99.99,,,0.00,Acu-Link.com,2013-04-25 12:57:00,
2013-04-25 06:12:00,50.0,49.5,29.87,SSW,202,0.0,-999.0,98,-99.99,,,0.00,Acu-Link.com,2013-04-25 13:12:00,
2013-04-25 06:27:00,49.3,48.8,29.89,SSW,202,0.0,-999.0,98,-99.99,,,0.00,Acu-Link.com,2013-04-25 13:27:00,
2013-04-25 06:42:00,49.1,48.6,29.89,SSW,202,0.0,-999.0,98,-99.99,,,0.00,Acu-Link.com,2013-04-25 13:42:00,
2013-04-25 06:57:00,49.5,49.0,29.89,SSW,202,0.0,-999.0,98,-99.99,,,0.00,Acu-Link.com,2013-04-25 13:57:00,
2013-04-25 07:12:00,50.4,49.9,29.89,SSW,202,0.0,-999.0,98,-99.99,,,0.00,Acu-Link.com,2013-04-25 14:12:00,
2013-04-25 07:28:00,51.4,50.9,29.89,SSW,202,0.0,-999.0,98,-99.99,,,0.00,Acu-Link.com,2013-04-25 14:28:00,
2013-04-25 07:43:00,55.2,54.6,29.90,South,180,0.0,-999.0,98,-99.99,,,0.00,Acu-Link.com,2013-04-25 14:43:00,
2013-04-25 07:58:00,59.7,59.1,29.91,ENE,67,0.0,-999.0,98,-99.99,,,0.00,Acu-Link.com,2013-04-25 14:58:00,
2013-04-25 08:13:00,64.2,55.7,29.91,WSW,247,1.7,-999.0,74,-99.99,,,0.00,Acu-Link.com,2013-04-25 15:13:00,
2013-04-25 08:28:00,68.5,-35.7,29.91,East,90,0.0,-999.0,1,-99.99,,,0.00,Acu-Link.com,2013-04-25 15:28:00,
2013-04-25 08:43:00,70.2,-34.7,29.92,South,180,0.0,-999.0,1,-99.99,,,0.00,Acu-Link.com,2013-04-25 15:43:00,
2013-04-25 08:58:00,72.0,-33.6,29.91,NNE,22,0.0,-999.0,1,-99.99,,,0.00,Acu-Link.com,2013-04-25 15:58:00,
2013-04-25 09:13:00,74.7,-32.0,29.92,West,270,0.0,-999.0,1,-99.99,,,0.00,Acu-Link.com,2013-04-25 16:13:00,
2013-04-25 09:28:00,74.3,-32.2,29.93,WSW,247,2.7,-999.0,1,-99.99,,,0.00,Acu-Link.com,2013-04-25 16:28:00,
2013-04-25 09:44:00,76.1,-31.2,29.93,NE,45,1.7,-999.0,1,-99.99,,,0.00,Acu-Link.com,2013-04-25 16:44:00,
2013-04-25 09:59:00,76.5,-30.9,29.93,NW,315,1.1,-999.0,1,-99.99,,,0.00,Acu-Link.com,2013-04-25 16:59:00,
2013-04-25 10:14:00,77.9,72.7,29.93,WNW,292,2.2,-999.0,84,-99.99,,,0.00,Acu-Link.com,2013-04-25 17:14:00,
2013-04-25 10:29:00,79.2,34.7,29.94,SW,225,3.2,-999.0,20,-99.99,,,0.00,Acu-Link.com,2013-04-25 17:29:00,
2013-04-25 10:44:00,78.1,23.3,29.94,NNW,337,2.7,-999.0,13,-99.99,,,0.00,Acu-Link.com,2013-04-25 17:44:00,
2013-04-25 10:59:00,78.1,57.4,29.95,SW,225,2.7,-999.0,49,-99.99,,,0.00,Acu-Link.com,2013-04-25 17:59:00,
2013-04-25 11:15:00,77.5,49.9,29.94,SSW,202,3.7,-999.0,38,-99.99,,,0.00,Acu-Link.com,2013-04-25 18:15:00,
2013-04-25 11:31:00,77.0,52.1,29.93,West,270,1.7,-999.0,42,-99.99,,,0.00,Acu-Link.com,2013-04-25 18:31:00,
2013-04-25 11:46:00,77.9,77.0,29.93,SW,225,3.7,-999.0,97,-99.99,,,0.00,Acu-Link.com,2013-04-25 18:46:00,
2013-04-25 12:01:00,77.5,-30.3,29.93,South,180,4.7,-999.0,1,-99.99,,,0.00,Acu-Link.com,2013-04-25 19:01:00,
2013-04-25 12:16:00,77.2,-30.5,29.93,SSW,202,6.3,-999.0,1,-99.99,,,0.00,Acu-Link.com,2013-04-25 19:16:00,
2013-04-25 12:32:00,77.2,-30.5,29.93,SW,225,3.2,-999.0,1,-99.99,,,0.00,Acu-Link.com,2013-04-25 19:32:00,
2013-04-25 12:47:00,76.3,-31.0,29.92,WSW,247,4.2,-999.0,1,-99.99,,,0.00,Acu-Link.com,2013-04-25 19:47:00,
2013-04-25 13:02:00,76.6,-30.9,29.92,SW,225,3.7,-999.0,1,-99.99,,,0.00,Acu-Link.com,2013-04-25 20:02:00,
2013-04-25 13:17:00,75.4,-31.6,29.92,ESE,112,3.7,-999.0,1,-99.99,,,0.00,Acu-Link.com,2013-04-25 20:17:00,
2013-04-25 13:32:00,75.7,-31.4,29.91,West,270,4.7,-999.0,1,-99.99,,,0.00,Acu-Link.com,2013-04-25 20:32:00,
2013-04-25 13:47:00,74.7,-32.0,29.92,WSW,247,5.3,-999.0,1,-99.99,,,0.00,Acu-Link.com,2013-04-25 20:47:00,
2013-04-25 14:02:00,76.6,-30.9,29.92,ESE,112,2.7,-999.0,1,-99.99,,,0.00,Acu-Link.com,2013-04-25 21:02:00,
2013-04-25 14:17:00,75.7,-31.4,29.92,West,270,3.2,-999.0,1,-99.99,,,0.00,Acu-Link.com,2013-04-25 21:17:00,
2013-04-25 14:32:00,75.0,-31.8,29.92,SW,225,8.3,-999.0,1,-99.99,,,0.00,Acu-Link.com,2013-04-25 21:32:00,
2013-04-25 14:48:00,75.4,-31.6,29.91,West,270,6.8,-999.0,1,-99.99,,,0.00,Acu-Link.com,2013-04-25 21:48:00,
2013-04-25 15:03:00,73.6,-32.7,29.92,SW,225,5.3,-999.0,1,-99.99,,,0.00,Acu-Link.com,2013-04-25 22:03:00,
2013-04-25 15:18:00,75.4,-31.6,29.92,NNW,337,7.3,-999.0,1,-99.99,,,0.00,Acu-Link.com,2013-04-25 22:18:00,
2013-04-25 15:33:00,73.9,-32.5,29.91,SSE,157,3.2,-999.0,1,-99.99,,,0.00,Acu-Link.com,2013-04-25 22:33:00,
2013-04-25 15:48:00,73.8,-32.5,29.91,WNW,292,5.3,-999.0,1,-99.99,,,0.00,Acu-Link.com,2013-04-25 22:48:00,
2013-04-25 16:03:00,73.6,-32.7,29.91,South,180,4.7,-999.0,1,-99.99,,,0.00,Acu-Link.com,2013-04-25 23:03:00,
2013-04-25 16:18:00,72.7,-33.2,29.91,SW,225,5.8,-999.0,1,-99.99,,,0.00,Acu-Link.com,2013-04-25 23:18:00,
2013-04-25 16:33:00,72.5,-33.3,29.91,SW,225,6.8,-999.0,1,-99.99,,,0.00,Acu-Link.com,2013-04-25 23:33:00,
2013-04-25 16:48:00,70.9,-34.3,29.91,South,180,5.3,-999.0,1,-99.99,,,0.00,Acu-Link.com,2013-04-25 23:48:00,
2013-04-25 17:04:00,72.0,-33.6,29.91,SSW,202,6.3,-999.0,1,-99.99,,,0.00,Acu-Link.com,2013-04-26 00:04:00,
2013-04-25 17:19:00,70.2,-34.7,29.91,WSW,247,6.8,-999.0,1,-99.99,,,0.00,Acu-Link.com,2013-04-26 00:19:00,
2013-04-25 17:34:00,69.6,-35.1,29.90,SSW,202,6.3,-999.0,1,-99.99,,,0.00,Acu-Link.com,2013-04-26 00:34:00,
2013-04-25 17:49:00,69.1,-35.4,29.90,North,0,4.7,-999.0,1,-99.99,,,0.00,Acu-Link.com,2013-04-26 00:49:00,
2013-04-25 18:04:00,67.1,-36.6,29.90,SE,135,6.8,-999.0,1,-99.99,,,0.00,Acu-Link.com,2013-04-26 01:04:00,
2013-04-25 18:19:00,66.0,-37.2,29.91,WSW,247,4.7,-999.0,1,-99.99,,,0.00,Acu-Link.com,2013-04-26 01:19:00,
2013-04-25 18:34:00,65.7,-37.4,29.91,SW,225,5.8,-999.0,1,-99.99,,,0.00,Acu-Link.com,2013-04-26 01:34:00,
2013-04-25 18:49:00,64.0,-38.4,29.92,SW,225,5.3,-999.0,1,-99.99,,,0.00,Acu-Link.com,2013-04-26 01:49:00,
2013-04-25 19:05:00,63.1,-8.9,29.91,SW,225,6.3,-999.0,5,-99.99,,,0.00,Acu-Link.com,2013-04-26 02:05:00,
2013-04-25 19:20:00,61.5,-39.9,29.91,South,180,4.7,-999.0,1,-99.99,,,0.00,Acu-Link.com,2013-04-26 02:20:00,
2013-04-25 19:35:00,60.1,-40.8,29.93,SSW,202,1.7,-999.0,1,-99.99,,,0.00,Acu-Link.com,2013-04-26 02:35:00,
2013-04-25 19:50:00,59.2,57.2,29.93,SSW,202,3.2,-999.0,93,-99.99,,,0.00,Acu-Link.com,2013-04-26 02:50:00,
2013-04-25 20:05:00,58.6,58.0,29.92,SSW,202,2.2,-999.0,98,-99.99,,,0.00,Acu-Link.com,2013-04-26 03:05:00,
2013-04-25 20:20:00,58.1,57.5,29.93,SSW,202,0.0,-999.0,98,-99.99,,,0.00,Acu-Link.com,2013-04-26 03:20:00,
2013-04-25 20:35:00,57.6,57.0,29.94,WSW,247,2.2,-999.0,98,-99.99,,,0.00,Acu-Link.com,2013-04-26 03:35:00,
2013-04-25 20:50:00,57.4,56.8,29.95,SSW,202,0.0,-999.0,98,-99.99,,,0.00,Acu-Link.com,2013-04-26 03:50:00,
2013-04-25 21:05:00,56.8,56.2,29.95,WSW,247,2.2,-999.0,98,-99.99,,,0.00,Acu-Link.com,2013-04-26 04:05:00,
2013-04-25 21:21:00,56.5,55.9,29.96,SW,225,1.7,-999.0,98,-99.99,,,0.00,Acu-Link.com,2013-04-26 04:21:00,
2013-04-25 21:36:00,56.5,55.9,29.97,SW,225,2.7,-999.0,98,-99.99,,,0.00,Acu-Link.com,2013-04-26 04:36:00,
2013-04-25 21:51:00,56.1,55.5,29.97,SE,135,0.0,-999.0,98,-99.99,,,0.00,Acu-Link.com,2013-04-26 04:51:00,
2013-04-25 22:06:00,55.2,54.6,29.96,SSE,157,0.0,-999.0,98,-99.99,,,0.00,Acu-Link.com,2013-04-26 05:06:00,
2013-04-25 22:21:00,54.1,53.5,29.97,WNW,292,0.0,-999.0,98,-99.99,,,0.00,Acu-Link.com,2013-04-26 05:21:00,
2013-04-25 22:36:00,54.0,53.4,29.97,West,270,2.7,-999.0,98,-99.99,,,0.00,Acu-Link.com,2013-04-26 05:36:00,
2013-04-25 22:51:00,53.8,53.2,29.97,SSW,202,1.7,-999.0,98,-99.99,,,0.00,Acu-Link.com,2013-04-26 05:51:00,
2013-04-25 23:07:00,53.8,53.2,29.99,SSE,157,0.0,-999.0,98,-99.99,,,0.00,Acu-Link.com,2013-04-26 06:07:00,
2013-04-25 23:22:00,53.2,52.6,29.99,South,180,0.0,-999.0,98,-99.99,,,0.00,Acu-Link.com,2013-04-26 06:22:00,
2013-04-25 23:37:00,52.3,51.8,30.00,SE,135,0.0,-999.0,98,-99.99,,,0.00,Acu-Link.com,2013-04-26 06:37:00,
2013-04-25 23:52:00,51.3,50.8,29.99,East,90,0.0,-999.0,98,-99.99,,,0.00,Acu-Link.com,2013-04-26 06:52:00,